Home   Weather   Altdorf   Past weeks
Flag for Switzerland

Past Weather in Altdorf, Uri, Switzerland — Yesterday and Last 2 Weeks

Now
76 °F

Mild.


Feels Like: 78 °F
Forecast: 85 / 66 °F
Wind: 6 mph from South

Location: Altdorf

Current Time: Jul 24, 2019 at 1:21:07 am

Latest Report: Jul 24, 2019 at 12:00 am


Visibility: N/A

Pressure: 30.02 "Hg

Humidity: 63%

Dew Point: 62 °F

Location of AltdorfLocation

Past Weather in Altdorf — Graph

°F

Altdorf Temperature Yesterday

Maximum temperature yesterday: 87 °F (at 6:00 pm)
Minimum temperature yesterday: 63 °F (at 6:00 am)
Average temperature yesterday: 74 °F

High & Low Weather Summary for the Past Weeks

 TemperatureHumidityPressure
High87 °F (Jul 23, 6:00 pm)97% (Jul 9, 2:00 am)30.25 "Hg (Jul 9, 2:00 am)
Low52 °F (Jul 14, 6:00 am)36% (Jul 18, 4:00 pm)29.83 "Hg (Jul 17, 7:00 pm)
Average67 °F74%30.00 "Hg
* Reported Jul 9 12:00 am — Jul 24 12:00 am, Altdorf. Weather by CustomWeather, © 2019

Note: Actual official high and low records may vary slightly from our data, if they occured in-between our weather recording intervals... More about our weather records

Advertising

Altdorf Weather History for the Previous 24 Hours

Scroll right to see more
 ConditionsComfort  
Time TempWeatherWind HumidityBarometerVisibility
12:00 am
Wed, Jul 24
76 °FMild.6 mph63%30.02 "HgN/A
11:00 pm
Tue, Jul 23
73 °FClear.3 mph73%30.03 "Hg16 mi
10:00 pm76 °FMild.3 mph67%30.02 "HgN/A
9:00 pm81 °FWarm.2 mph56%30.00 "HgN/A
8:00 pm81 °FPassing clouds.2 mph58%29.98 "Hg19 mi
7:00 pm85 °FWarm.1 mph48%29.97 "HgN/A
6:00 pm87 °FWarm.7 mph45%29.98 "HgN/A
5:00 pm87 °FPassing clouds.7 mph47%29.98 "Hg19 mi
4:00 pm86 °FWarm.8 mph44%30.00 "HgN/A
3:00 pm84 °FWarm.8 mph55%30.03 "HgN/A
2:00 pm83 °FPassing clouds.8 mph58%30.05 "Hg19 mi
1:00 pm80 °FWarm.6 mph66%30.07 "HgN/A
12:00 pm78 °FWarm.3 mph66%30.09 "HgN/A
11:00 am75 °FSunny.5 mph74%30.10 "Hg19 mi
10:00 am74 °FMild.3 mph68%30.12 "HgN/A
9:00 am71 °FMild.1 mph72%30.14 "HgN/A
8:00 am64 °FSunny.No wind87%30.16 "Hg19 mi
7:00 am64 °FMild.1 mph84%30.17 "HgN/A
6:00 am63 °FMild.2 mph89%30.17 "HgN/A
5:00 am64 °FClear.No wind87%30.16 "Hg16 mi
4:00 am67 °FMild.2 mph81%30.16 "HgN/A
3:00 am65 °FMild.2 mph85%30.17 "HgN/A
2:00 am67 °FClear.1 mph83%30.18 "Hg16 mi
1:00 am66 °FMild.No wind90%30.19 "HgN/A
Weather by CustomWeather, © 2019

See weather overview